Regional Weather Roundup
Issued by NWS

Home | Current Version | Previous Version | Graphics & Text | Print | Product List | Glossary On
Versions: 1 2 3 4 5 6 7 8 9 10 11 12 13 14 15 16 17 18 19 20 21 22 23 24 25 26 27 28 29 30 31 32 33 34 35 36 37 38 39 40 41 42 43 44 45 46 47 48 49 50
000
ASUS43 KIND 291009
RWRIN

WEATHER ROUNDUP FOR INDIANA
NATIONAL WEATHER SERVICE INDIANAPOLIS IN
600 AM EDT TUE JUL 29 2014

NOTE: "FAIR" INDICATES FEW OR NO CLOUDS BELOW 12,000 FEET WITH NO
SIGNIFICANT WEATHER AND/OR OBSTRUCTIONS TO VISIBILITY.

* - STATION DOES NOT REPORT WEATHER SUCH AS PRECIPITATION OR FOG.

+ - STATION NOT QUALITY CONTROLLED BY THE NATIONAL WEATHER SERVICE.
    USE DATA WITH CAUTION...ESPECIALLY DEWPOINT AND RELATIVE
    HUMIDITY OBSERVATIONS.

INZ001>003-010>013-019-020-291100-
NORTHWEST INDIANA

CITY           SKY/WX    TMP DP  RH WIND       PRES   REMARKS
GARY /AIRPORT/ CLEAR     54  52  94 S5        30.05S
KNOX *+        CLEAR     47  46  93 S5        30.04S
LA PORTE +     CLEAR     49  49 100 CALM      30.04S
MICHIGAN CITY+ CLEAR     52  50  93 CALM      30.04S
MONTICELLO +   CLEAR     51  50  97 CALM      30.04S
RENSSELAER +   CLEAR     52  52 100 CALM      30.05S
VALPARAISO     CLEAR     51  50  96 W5        30.05S

$$

LMZ046-743>745-291100-
SOUTHERN LAKE MICHIGAN

STATION/POSITION TIME  TEMP WIND        PRES
                       AIR  DIR/SP/G
                 (UTC) (F)  (DEG/KT/KT) (MB)
MICHIGAN CITY    1000   57  170/  5/  6   N/A

$$

INZ004-005-014>016-021>024-291100-
NORTH CENTRAL INDIANA

CITY           SKY/WX    TMP DP  RH WIND       PRES   REMARKS
GOSHEN         CLEAR     49  46  90 CALM      30.04R
LOGANSPORT +   PTCLDY    50  46  87 CALM      30.06S
PERU/GRISSOM   CLEAR     49  49 100 W3        30.05R
ROCHESTER +    CLEAR     52  50  93 CALM      30.05S
SOUTH BEND     CLEAR     51  47  86 S3        30.03F
WARSAW +       CLEAR     46  46 100 CALM      30.04S

$$

INZ006>009-017-018-025>027-291100-
NORTHEAST INDIANA

CITY           SKY/WX    TMP DP  RH WIND       PRES   REMARKS
ANGOLA *+      CLEAR     48  48 100 CALM      30.03R
AUBURN +       CLEAR     50  46  87 CALM      30.04R
FORT WAYNE     CLEAR     48  46  93 CALM      30.04S
HUNTINGTON +   CLEAR     47  47  97 W3        30.04R

$$

INZ028-029-035-036-043>045-051>053-291100-
WEST CENTRAL INDIANA

CITY           SKY/WX    TMP DP  RH WIND       PRES   REMARKS
GREENCASTLE +  CLOUDY    54  50  87 CALM      30.08S
LAFAYETTE      PTCLDY    52  51  97 CALM      30.05S
TERRE HAUTE    CLOUDY    56  51  84 SW3       30.08S

$$

INZ030>032-037>040-046>048-054>057-064-065-291100-
CENTRAL INDIANA

CITY           SKY/WX    TMP DP  RH WIND       PRES   REMARKS
CP ATTERBURY + CLOUDY    52  50  93 CALM      30.07R
FRANKFORT +    PTCLDY   N/A N/A N/A SW3       30.07
GREENWOOD *+   CLOUDY    57  54  88 CALM      30.06
INDIANAPOLIS   CLOUDY    55  49  80 W5        30.05R
-EAGLE CREEK   CLOUDY    56  49  77 NW6       30.05S
KOKOMO *+      PTCLDY    52  48  87 CALM      30.06R
MARION +       CLEAR     45  44  97 CALM      30.05S
MT COMFORT *+  MOCLDY    54 N/A N/A CALM      30.06R
SHELBYVILLE    CLOUDY    54  50  86 NW3       30.05R
ZIONSVILLE +   CLOUDY    56  50  79 CALM      30.06S

$$

INZ033-034-041-042-049-050-058-059-291100-
EAST CENTRAL INDIANA

CITY           SKY/WX    TMP DP  RH WIND       PRES   REMARKS
MUNCIE         CLEAR     49  46  90 CALM      30.05R

$$

INZ060-061-067>069-081>083-085>088-291100-
SOUTHWEST INDIANA

CITY           SKY/WX    TMP DP  RH WIND       PRES   REMARKS
EVANSVILLE     CLEAR     58  50  75 NW7       30.09R
WASHINGTON +   MOCLDY    54  51  90 CALM      30.08R

$$

INZ062-063-066-070>080-084-089>092-291100-
SOUTH CENTRAL AND SOUTHEAST INDIANA

CITY           SKY/WX    TMP DP  RH WIND       PRES   REMARKS
BEDFORD +      CLEAR     52  46  82 NW3       30.07
BLOOMINGTON    CLOUDY    55  49  80 NW3       30.07S
NORTH VERNON + CLEAR     50  50 100 CALM      30.06

$$



USA.gov is the U.S. government's official web portal to all federal, state and local government web resources and services.